| time (UTC) | temp F | wind direction | speed MPH | gust MPH | rain 1hr in | rain 24hr in | rain mn in | humidity % | barometer mb |
| 20260831111503 | 74 | 184 | 6.0 | 12.0 | 0.00 | 0.17 | 0.00 | 82 | 1008.4 |
| 20260831110004 | 74 | 179 | 5.0 | 12.0 | 0.00 | 0.17 | 0.00 | 82 | 1008.4 |
| 20260831104503 | 75 | 156 | 5.0 | 13.0 | 0.00 | 0.17 | 0.00 | 81 | 1008.2 |
| 20260831103004 | 75 | 195 | 6.0 | 13.0 | 0.00 | 0.17 | 0.00 | 80 | 1008.1 |
| 20260831101504 | 75 | 174 | 6.0 | 12.0 | 0.00 | 0.17 | 0.00 | 80 | 1008.2 |
| 20260831100004 | 75 | 173 | 7.0 | 14.0 | 0.00 | 0.17 | 0.00 | 80 | 1008.3 |
| 20260831094503 | 75 | 182 | 5.0 | 10.0 | 0.00 | 0.17 | 0.00 | 81 | 1008.3 |
| 20260831093004 | 75 | 186 | 6.0 | 10.0 | 0.00 | 0.17 | 0.00 | 81 | 1008.6 |
| 20260831091456 | 75 | 174 | 6.0 | 12.0 | 0.00 | 0.17 | 0.00 | 81 | 1008.5 |
| 20260831084456 | 75 | 176 | 5.0 | 12.0 | 0.00 | 0.17 | 0.00 | 81 | 1008.6 |
| 20260831082956 | 75 | 184 | 5.0 | 12.0 | 0.00 | 0.17 | 0.00 | 81 | 1008.5 |
| 20260831081456 | 76 | 171 | 5.0 | 12.0 | 0.00 | 0.17 | 0.00 | 81 | 1008.4 |
| 20260831072956 | 76 | 173 | 6.0 | 12.0 | 0.00 | 0.17 | 0.00 | 81 | 1008.5 |
| 20260831071456 | 76 | 179 | 6.0 | 12.0 | 0.00 | 0.17 | 0.00 | 81 | 1008.5 |
| 20260831064457 | 77 | 165 | 6.0 | 12.0 | 0.00 | 0.17 | 0.00 | 81 | 1008.8 |
| 20260831061457 | 77 | 178 | 6.0 | 12.0 | 0.00 | 0.17 | 0.00 | 81 | 1008.9 |
| 20260831055956 | 77 | 171 | 5.0 | 10.0 | 0.00 | 0.17 | 0.00 | 82 | 1009.1 |
| 20260831054456 | 77 | 171 | 5.0 | 9.0 | 0.00 | 0.17 | 0.00 | 82 | 1009.1 |
| 20260831051456 | 77 | 158 | 4.0 | 9.0 | 0.00 | 0.17 | 0.00 | 85 | 1009.2 |
| 20260831044456 | 77 | 154 | 5.0 | 12.0 | 0.00 | 0.17 | 0.17 | 85 | 1009.2 |
| 20260831042956 | 77 | 171 | 5.0 | 10.0 | 0.00 | 0.17 | 0.17 | 86 | 1009.2 |
| 20260831035956 | 76 | 141 | 5.0 | 9.0 | 0.00 | 0.17 | 0.17 | 89 | 1009.4 |
| 20260831032956 | 76 | 142 | 4.0 | 10.0 | 0.00 | 0.17 | 0.17 | 89 | 1009.7 |
| 20260831031456 | 76 | 148 | 3.0 | 10.0 | 0.00 | 0.17 | 0.17 | 89 | 1009.8 |
| 20260831025956 | 76 | 138 | 4.0 | 9.0 | 0.00 | 0.17 | 0.17 | 89 | 1010.0 |
| 20260831021456 | 76 | 153 | 0.0 | 5.0 | 0.00 | 0.17 | 0.17 | 88 | 1010.5 |
| 20260831014456 | 75 | 134 | 1.0 | 6.0 | 0.00 | 0.17 | 0.17 | 87 | 1009.9 |
| 20260831012957 | 75 | 153 | 2.0 | 5.0 | 0.00 | 0.17 | 0.17 | 86 | 1009.6 |
| 20260831011456 | 76 | 175 | 2.0 | 6.0 | 0.00 | 0.17 | 0.17 | 86 | 1009.5 |
| 20260831004457 | 76 | 153 | 2.0 | 6.0 | 0.00 | 0.21 | 0.17 | 84 | 1009.3 |
| 20260830235956 | 77 | 151 | 2.0 | 7.0 | 0.00 | 0.21 | 0.17 | 82 | 1009.5 |
| 20260830232957 | 77 | 143 | 4.0 | 7.0 | 0.00 | 0.21 | 0.17 | 80 | 1009.5 |
| 20260830231457 | 77 | 144 | 3.0 | 10.0 | 0.00 | 0.21 | 0.17 | 81 | 1009.8 |
| 20260830225957 | 77 | 142 | 6.0 | 12.0 | 0.00 | 0.21 | 0.17 | 82 | 1009.8 |
| 20260830224456 | 77 | 142 | 4.0 | 9.0 | 0.00 | 0.21 | 0.17 | 82 | 1009.6 |
| 20260830222956 | 77 | 62 | 2.0 | 10.0 | 0.00 | 0.21 | 0.17 | 84 | 1009.8 |
| 20260830221457 | 77 | 150 | 2.0 | 7.0 | 0.00 | 0.21 | 0.17 | 83 | 1010.0 |
| 20260830215956 | 76 | 148 | 2.0 | 6.0 | 0.00 | 0.21 | 0.17 | 86 | 1009.9 |
| 20260830214456 | 75 | 154 | 3.0 | 7.0 | 0.00 | 0.21 | 0.17 | 86 | 1010.3 |
| 20260830212956 | 75 | 141 | 5.0 | 12.0 | 0.00 | 0.21 | 0.17 | 87 | 1010.3 |
| 20260830211457 | 74 | 147 | 5.0 | 10.0 | 0.00 | 0.21 | 0.17 | 89 | 1010.2 |
| 20260830205956 | 74 | 139 | 5.0 | 12.0 | 0.00 | 0.21 | 0.17 | 90 | 1010.2 |
| 20260830204456 | 72 | 149 | 5.0 | 10.0 | 0.00 | 0.21 | 0.17 | 91 | 1010.4 |
| 20260830202956 | 72 | 100 | 3.0 | 8.0 | 0.02 | 0.21 | 0.17 | 91 | 1010.3 |
| 20260830201457 | 71 | 133 | 3.0 | 12.0 | 0.02 | 0.21 | 0.17 | 92 | 1010.4 |
| 20260830195957 | 71 | 143 | 5.0 | 13.0 | 0.04 | 0.21 | 0.17 | 92 | 1009.6 |
| 20260830194456 | 71 | 156 | 6.0 | 15.0 | 0.07 | 0.21 | 0.17 | 92 | 1009.3 |
| 20260830192957 | 72 | 151 | 5.0 | 10.0 | 0.07 | 0.19 | 0.15 | 92 | 1010.0 |
| 20260830191457 | 72 | 151 | 2.0 | 8.0 | 0.10 | 0.19 | 0.15 | 92 | 1010.8 |
| 20260830185957 | 72 | 143 | 3.0 | 10.0 | 0.09 | 0.17 | 0.13 | 91 | 1011.3 |
| 20260830184457 | 73 | 158 | 2.0 | 3.0 | 0.07 | 0.14 | 0.10 | 91 | 1011.5 |
| 20260830182956 | 74 | 151 | 3.0 | 5.0 | 0.06 | 0.12 | 0.08 | 90 | 1011.4 |
| 20260830181457 | 74 | 199 | 1.0 | 2.0 | 0.03 | 0.09 | 0.05 | 89 | 1011.7 |
| 20260830175957 | 74 | 162 | 1.0 | 3.0 | 0.03 | 0.09 | 0.04 | 88 | 1011.1 |
| 20260830174457 | 75 | 163 | 1.0 | 3.0 | 0.02 | 0.08 | 0.03 | 86 | 1011.3 |
| 20260830172957 | 76 | 200 | 2.0 | 5.0 | 0.01 | 0.08 | 0.02 | 86 | 1011.6 |
| 20260830171457 | 76 | 204 | 1.0 | 3.0 | 0.02 | 0.08 | 0.02 | 85 | 1011.5 |
| 20260830164456 | 75 | 30 | 1.0 | 3.0 | 0.01 | 0.09 | 0.01 | 84 | 1011.1 |
| 20260830162957 | 76 | 274 | 2.0 | 3.0 | 0.01 | 0.09 | 0.01 | 80 | 1011.8 |
| 20260830161457 | 77 | 155 | 0.0 | 12.0 | 0.00 | 0.08 | 0.00 | 76 | 1010.8 |
| 20260830155957 | 79 | 222 | 3.0 | 14.0 | 0.00 | 0.08 | 0.00 | 71 | 1010.6 |
| 20260830154457 | 79 | 204 | 4.0 | 13.0 | 0.00 | 0.09 | 0.00 | 70 | 1010.5 |
| 20260830152957 | 80 | 208 | 3.0 | 14.0 | 0.00 | 0.12 | 0.00 | 69 | 1009.9 |
| 20260830151457 | 80 | 230 | 5.0 | 10.0 | 0.00 | 0.16 | 0.00 | 70 | 1009.2 |
| 20260830145957 | 79 | 193 | 4.0 | 10.0 | 0.00 | 0.18 | 0.00 | 70 | 1009.1 |
| 20260830142957 | 78 | 195 | 3.0 | 13.0 | 0.00 | 0.20 | 0.00 | 71 | 1009.0 |
| 20260830141457 | 77 | 216 | 4.0 | 13.0 | 0.00 | 0.20 | 0.00 | 73 | 1008.8 |
| 20260830135957 | 76 | 208 | 4.0 | 12.0 | 0.00 | 0.20 | 0.00 | 73 | 1009.0 |
| 20260830134457 | 74 | 188 | 4.0 | 13.0 | 0.00 | 0.20 | 0.00 | 76 | 1008.7 |
| 20260830132957 | 73 | 203 | 5.0 | 12.0 | 0.00 | 0.20 | 0.00 | 77 | 1008.8 |
| 20260830131457 | 73 | 200 | 3.0 | 9.0 | 0.00 | 0.20 | 0.00 | 78 | 1008.9 |
| 20260830125957 | 73 | 180 | 4.0 | 13.0 | 0.00 | 0.20 | 0.00 | 78 | 1008.8 |
| 20260830122957 | 72 | 184 | 4.0 | 9.0 | 0.00 | 0.20 | 0.00 | 80 | 1008.9 |
| 20260830115957 | 71 | 153 | 5.0 | 10.0 | 0.00 | 0.20 | 0.00 | 82 | 1009.0 |
| 20260830114457 | 71 | 180 | 4.0 | 12.0 | 0.00 | 0.20 | 0.00 | 81 | 1009.0 |
| 20260830112957 | 70 | 178 | 5.0 | 10.0 | 0.00 | 0.20 | 0.00 | 82 | 1009.0 |